sat.trackr.live / text

‹ back to catalog

STARLINK-1362

NORAD 45538 · 2020-025H

PAYLOAD ACTIVE UNKNOWN

§ Identity

Operator
Country
US
Launch date
2020-04-22
Launch site
AFETR
Launch vehicle
Mass (kg)
RCS (m²)

Purposes: comms

External: N2YO · Heavens-Above · Gunter

§ Orbital elements

Epoch: 2026-05-25T04:58:53.184000Z

Period
93.77 min
Inclination
53.1577°
Eccentricity
0.0003324
Mean motion
15.35599058 rev/d
Perigee alt
456.9 km
Apogee alt
461.4 km
Semi-major
6,837.3 km
B*
-2.9738e-3
RAAN
104.1896°
Arg perigee
102.2364°
Mean anomaly
257.9012°
Rev number
33,691

§ Raw data

STARLINK-13621 45538U 20025H   26145.20756000 -.00103384  00000+0 -29738-2 0  99932 45538  53.1577 104.1896 0003324 102.2364 257.9012 15.35599058336912

JSON: /api/v1/satellites/45538 · /tle

For live sub-satellite position, see the globe view (requires WebGL).

§ Visibility from observer

Set your observer location to see the next 7 days of passes ≥ 10°. The values pass through the URL so the page stays shareable.

No JS? Fill the form by hand. The geolocation button needs JavaScript.